| time (UTC) | temp F | wind direction | speed knots | gust knots | rain 1hr in | rain 24hr in | rain mn in | humidity % | barometer mb |
| 20260506051004 | 71 | 186 | 5.2 | 10.4 | 0.00 | 0.00 | 0.00 | 48 | 1012.1 |
| 20260506050507 | 71 | 203 | 5.2 | 9.6 | 0.00 | 0.00 | 0.00 | 49 | 1012.1 |
| 20260506045004 | 71 | 153 | 3.5 | 8.7 | 0.00 | 0.00 | 0.00 | 49 | 1012.1 |
| 20260506044516 | 71 | 156 | 4.3 | 8.7 | 0.00 | 0.00 | 0.00 | 48 | 1012.0 |
| 20260506044004 | 71 | 220 | 3.5 | 11.3 | 0.00 | 0.00 | 0.00 | 49 | 1012.0 |
| 20260506043508 | 71 | 209 | 5.2 | 11.3 | 0.00 | 0.00 | 0.00 | 49 | 1011.9 |
| 20260506043021 | 71 | 173 | 5.2 | 9.6 | 0.00 | 0.00 | 0.00 | 49 | 1012.0 |
| 20260506042508 | 71 | 207 | 4.3 | 9.6 | 0.00 | 0.00 | 0.00 | 49 | 1012.1 |
| 20260506042013 | 71 | 212 | 3.5 | 9.6 | 0.00 | 0.00 | 0.00 | 49 | 1012.2 |
| 20260506041522 | 71 | 213 | 5.2 | 8.7 | 0.00 | 0.00 | 0.00 | 49 | 1012.2 |
| 20260506041013 | 71 | 147 | 4.3 | 8.7 | 0.00 | 0.00 | 0.00 | 49 | 1012.2 |
| 20260506040508 | 71 | 195 | 3.5 | 7.8 | 0.00 | 0.00 | 0.00 | 50 | 1012.2 |
| 20260506040008 | 71 | 212 | 5.2 | 7.8 | 0.00 | 0.00 | 0.00 | 50 | 1012.1 |
| 20260506035504 | 71 | 156 | 3.5 | 7.8 | 0.00 | 0.00 | 0.00 | 50 | 1012.0 |
| 20260506035003 | 71 | 219 | 3.5 | 7.8 | 0.00 | 0.00 | 0.00 | 50 | 1012.1 |
| 20260506034511 | 71 | 175 | 4.3 | 8.7 | 0.00 | 0.00 | 0.00 | 50 | 1012.2 |
| 20260506034005 | 71 | 211 | 3.5 | 8.7 | 0.00 | 0.00 | 0.00 | 50 | 1012.3 |
| 20260506033507 | 71 | 162 | 2.6 | 8.7 | 0.00 | 0.00 | 0.00 | 50 | 1012.4 |
| 20260506033025 | 71 | 201 | 5.2 | 7.0 | 0.00 | 0.00 | 0.00 | 50 | 1012.3 |
| 20260506032506 | 71 | 237 | 3.5 | 7.0 | 0.00 | 0.00 | 0.00 | 50 | 1012.4 |
| 20260506032009 | 71 | 235 | 2.6 | 5.2 | 0.00 | 0.00 | 0.00 | 50 | 1012.5 |
| 20260506031532 | 71 | 210 | 1.7 | 5.2 | 0.00 | 0.00 | 0.00 | 49 | 1012.5 |
| 20260506031009 | 71 | 203 | 2.6 | 6.1 | 0.00 | 0.00 | 0.00 | 49 | 1012.7 |
| 20260506030509 | 71 | 245 | 2.6 | 6.1 | 0.00 | 0.00 | 0.00 | 48 | 1012.7 |
| 20260506030029 | 71 | 244 | 3.5 | 7.8 | 0.00 | 0.00 | 0.00 | 48 | 1012.7 |
| 20260506025510 | 71 | 258 | 4.3 | 7.8 | 0.00 | 0.00 | 0.00 | 48 | 1012.7 |
| 20260506025003 | 71 | 175 | 4.3 | 11.3 | 0.00 | 0.00 | 0.00 | 48 | 1012.7 |
| 20260506024509 | 71 | 231 | 4.3 | 11.3 | 0.00 | 0.00 | 0.00 | 47 | 1012.4 |
| 20260506024004 | 71 | 184 | 6.1 | 11.3 | 0.00 | 0.00 | 0.00 | 47 | 1012.4 |
| 20260506023505 | 71 | 167 | 4.3 | 8.7 | 0.00 | 0.00 | 0.00 | 47 | 1012.3 |
| 20260506023014 | 71 | 152 | 4.3 | 7.8 | 0.00 | 0.00 | 0.00 | 47 | 1012.3 |
| 20260506022505 | 71 | 223 | 3.5 | 9.6 | 0.00 | 0.00 | 0.00 | 47 | 1012.1 |
| 20260506022006 | 71 | 176 | 4.3 | 9.6 | 0.00 | 0.00 | 0.00 | 46 | 1012.0 |
| 20260506021519 | 71 | 159 | 4.3 | 8.7 | 0.00 | 0.00 | 0.00 | 47 | 1012.1 |
| 20260506021006 | 71 | 191 | 3.5 | 7.8 | 0.00 | 0.00 | 0.00 | 47 | 1012.0 |
| 20260506020506 | 71 | 174 | 2.6 | 6.1 | 0.00 | 0.00 | 0.00 | 47 | 1011.9 |
| 20260506020022 | 71 | 179 | 3.5 | 7.8 | 0.00 | 0.00 | 0.00 | 48 | 1011.9 |
| 20260506015510 | 71 | 197 | 2.6 | 8.7 | 0.00 | 0.00 | 0.00 | 47 | 1012.0 |
| 20260506015010 | 71 | 201 | 4.3 | 8.7 | 0.00 | 0.00 | 0.00 | 47 | 1011.9 |
| 20260506014526 | 71 | 217 | 4.3 | 7.0 | 0.00 | 0.00 | 0.00 | 47 | 1011.9 |
| 20260506014005 | 71 | 219 | 3.5 | 9.6 | 0.00 | 0.00 | 0.00 | 47 | 1011.6 |
| 20260506013505 | 71 | 167 | 2.6 | 9.6 | 0.00 | 0.00 | 0.00 | 47 | 1011.4 |
| 20260506013013 | 71 | 230 | 4.3 | 7.0 | 0.00 | 0.00 | 0.00 | 47 | 1011.5 |
| 20260506012505 | 71 | 231 | 3.5 | 7.0 | 0.00 | 0.00 | 0.00 | 47 | 1011.6 |
| 20260506012005 | 71 | 165 | 2.6 | 9.6 | 0.00 | 0.00 | 0.00 | 47 | 1011.5 |
| 20260506011518 | 71 | 200 | 3.5 | 9.6 | 0.00 | 0.00 | 0.00 | 47 | 1011.4 |
| 20260506011006 | 71 | 236 | 1.7 | 6.1 | 0.00 | 0.00 | 0.00 | 46 | 1011.3 |
| 20260506010511 | 71 | 198 | 4.3 | 6.1 | 0.00 | 0.00 | 0.00 | 46 | 1011.3 |
| 20260506010045 | 71 | 201 | 2.6 | 5.2 | 0.00 | 0.00 | 0.00 | 46 | 1011.2 |
| 20260506005509 | 71 | 207 | 2.6 | 5.2 | 0.00 | 0.00 | 0.00 | 46 | 1011.2 |
| 20260506005006 | 71 | 161 | 2.6 | 7.0 | 0.00 | 0.00 | 0.00 | 45 | 1011.2 |
| 20260506004524 | 71 | 160 | 1.7 | 7.0 | 0.00 | 0.00 | 0.00 | 45 | 1011.3 |
| 20260506004010 | 71 | 225 | 3.5 | 7.0 | 0.00 | 0.00 | 0.00 | 45 | 1011.4 |
| 20260506003510 | 71 | 164 | 1.7 | 7.0 | 0.00 | 0.00 | 0.00 | 45 | 1011.5 |
| 20260506003012 | 71 | 228 | 3.5 | 7.8 | 0.00 | 0.00 | 0.00 | 44 | 1011.5 |
| 20260506002504 | 71 | 165 | 3.5 | 7.8 | 0.00 | 0.00 | 0.00 | 45 | 1011.4 |
| 20260506002005 | 71 | 159 | 2.6 | 7.0 | 0.00 | 0.00 | 0.00 | 45 | 1011.3 |
| 20260506001516 | 71 | 218 | 2.6 | 7.0 | 0.00 | 0.00 | 0.00 | 45 | 1011.3 |
| 20260506001006 | 71 | 231 | 2.6 | 7.0 | 0.00 | 0.00 | 0.00 | 44 | 1011.5 |
| 20260506000508 | 72 | 163 | 2.6 | 7.0 | 0.00 | 0.00 | 0.00 | 44 | 1011.6 |
| 20260506000020 | 72 | 207 | 3.5 | 9.6 | 0.00 | 0.00 | 0.00 | 44 | 1011.8 |
| 20260505235508 | 72 | 196 | 1.7 | 9.6 | 0.00 | 0.00 | 0.00 | 44 | 1011.9 |
| 20260505235011 | 72 | 219 | 2.6 | 7.8 | 0.00 | 0.00 | 0.00 | 44 | 1011.8 |
| 20260505234522 | 71 | 174 | 3.5 | 7.8 | 0.00 | 0.00 | 0.00 | 44 | 1011.6 |
| 20260505234009 | 72 | 160 | 2.6 | 6.1 | 0.00 | 0.00 | 0.00 | 45 | 1011.5 |
| 20260505233507 | 72 | 180 | 2.6 | 6.1 | 0.00 | 0.00 | 0.00 | 45 | 1011.5 |
| 20260505233025 | 71 | 167 | 3.5 | 8.7 | 0.00 | 0.00 | 0.00 | 45 | 1011.5 |
| 20260505232511 | 71 | 223 | 2.6 | 8.7 | 0.00 | 0.00 | 0.00 | 45 | 1011.6 |
| 20260505232005 | 71 | 200 | 2.6 | 5.2 | 0.00 | 0.00 | 0.00 | 46 | 1011.5 |
| 20260505231518 | 71 | 186 | 2.6 | 5.2 | 0.00 | 0.00 | 0.00 | 46 | 1011.5 |
| 20260505231005 | 71 | 190 | 2.6 | 7.8 | 0.00 | 0.00 | 0.00 | 46 | 1011.4 |
| 20260505230506 | 72 | 165 | 3.5 | 7.8 | 0.00 | 0.00 | 0.00 | 44 | 1011.5 |
| 20260505230003 | 72 | 226 | 2.6 | 7.8 | 0.00 | 0.00 | 0.00 | 44 | 1011.4 |
| 20260505225504 | 72 | 160 | 3.5 | 7.8 | 0.00 | 0.00 | 0.00 | 44 | 1011.4 |
| 20260505225003 | 72 | 222 | 4.3 | 7.8 | 0.00 | 0.00 | 0.00 | 43 | 1011.5 |
| 20260505224505 | 72 | 198 | 3.5 | 8.7 | 0.00 | 0.00 | 0.00 | 43 | 1011.5 |
| 20260505224003 | 72 | 217 | 4.3 | 8.7 | 0.00 | 0.00 | 0.00 | 43 | 1011.5 |
| 20260505223503 | 72 | 212 | 4.3 | 7.0 | 0.00 | 0.00 | 0.00 | 43 | 1011.6 |
| 20260505223006 | 73 | 200 | 3.5 | 6.1 | 0.00 | 0.00 | 0.00 | 43 | 1011.7 |
| 20260505222502 | 73 | 181 | 3.5 | 6.1 | 0.00 | 0.00 | 0.00 | 43 | 1011.8 |
| 20260505222007 | 73 | 156 | 3.5 | 8.7 | 0.00 | 0.00 | 0.00 | 43 | 1011.7 |
| 20260505221513 | 73 | 200 | 5.2 | 10.4 | 0.00 | 0.00 | 0.00 | 42 | 1011.7 |
| 20260505221004 | 73 | 214 | 2.6 | 10.4 | 0.00 | 0.00 | 0.00 | 42 | 1011.6 |
| 20260505220504 | 73 | 152 | 4.3 | 10.4 | 0.00 | 0.00 | 0.00 | 42 | 1011.7 |
| 20260505220022 | 73 | 162 | 3.5 | 10.4 | 0.00 | 0.00 | 0.00 | 42 | 1011.7 |
| 20260505215507 | 73 | 154 | 3.5 | 10.4 | 0.00 | 0.00 | 0.00 | 42 | 1012.0 |
| 20260505215003 | 73 | 183 | 4.3 | 10.4 | 0.00 | 0.00 | 0.00 | 43 | 1011.9 |
| 20260505214503 | 74 | 193 | 5.2 | 9.6 | 0.00 | 0.00 | 0.00 | 43 | 1012.1 |
| 20260505214003 | 74 | 223 | 3.5 | 9.6 | 0.00 | 0.00 | 0.00 | 42 | 1012.1 |
| 20260505213502 | 74 | 167 | 3.5 | 9.6 | 0.00 | 0.00 | 0.00 | 42 | 1012.2 |
| 20260505213018 | 74 | 192 | 6.1 | 9.6 | 0.00 | 0.00 | 0.00 | 42 | 1012.2 |
| 20260505212506 | 75 | 167 | 2.6 | 6.1 | 0.00 | 0.00 | 0.00 | 41 | 1012.2 |
| 20260505212004 | 75 | 180 | 3.5 | 6.1 | 0.00 | 0.00 | 0.00 | 40 | 1012.3 |
| 20260505211508 | 75 | 243 | 3.5 | 8.7 | 0.00 | 0.00 | 0.00 | 40 | 1012.1 |
| 20260505211003 | 75 | 174 | 2.6 | 9.6 | 0.00 | 0.00 | 0.00 | 40 | 1012.1 |
| 20260505210507 | 75 | 202 | 4.3 | 9.6 | 0.00 | 0.00 | 0.00 | 39 | 1012.2 |
| 20260505210017 | 75 | 231 | 4.3 | 11.3 | 0.00 | 0.00 | 0.00 | 36 | 1012.2 |
| 20260505205504 | 76 | 183 | 6.1 | 11.3 | 0.00 | 0.00 | 0.00 | 35 | 1012.2 |
| 20260505205008 | 76 | 185 | 5.2 | 11.3 | 0.00 | 0.00 | 0.00 | 36 | 1012.2 |
| 20260505204521 | 76 | 158 | 5.2 | 13.0 | 0.00 | 0.00 | 0.00 | 36 | 1012.2 |
| 20260505204006 | 76 | 162 | 7.8 | 13.0 | 0.00 | 0.00 | 0.00 | 35 | 1012.3 |
| 20260505203503 | 76 | 169 | 6.1 | 10.4 | 0.00 | 0.00 | 0.00 | 38 | 1012.4 |
| 20260505203005 | 76 | 181 | 6.1 | 10.4 | 0.00 | 0.00 | 0.00 | 40 | 1012.3 |
| 20260505202503 | 76 | 160 | 5.2 | 13.9 | 0.00 | 0.00 | 0.00 | 43 | 1012.5 |
| 20260505202006 | 76 | 177 | 6.1 | 13.9 | 0.00 | 0.00 | 0.00 | 44 | 1012.5 |
| 20260505201510 | 76 | 197 | 4.3 | 10.4 | 0.00 | 0.00 | 0.00 | 45 | 1012.5 |
| 20260505201004 | 75 | 194 | 2.6 | 13.9 | 0.00 | 0.00 | 0.00 | 45 | 1012.7 |
| 20260505200505 | 76 | 174 | 6.1 | 13.9 | 0.00 | 0.00 | 0.00 | 44 | 1012.7 |
| 20260505200014 | 76 | 195 | 4.3 | 11.3 | 0.00 | 0.00 | 0.00 | 46 | 1012.6 |
| 20260505195505 | 75 | 173 | 7.0 | 11.3 | 0.00 | 0.00 | 0.00 | 44 | 1012.8 |
| 20260505195007 | 75 | 192 | 5.2 | 14.8 | 0.00 | 0.00 | 0.00 | 44 | 1012.8 |
| 20260505194524 | 75 | 170 | 5.2 | 14.8 | 0.00 | 0.00 | 0.00 | 43 | 1012.8 |
| 20260505194008 | 76 | 219 | 7.0 | 12.2 | 0.00 | 0.00 | 0.00 | 44 | 1012.9 |
| 20260505193509 | 76 | 160 | 5.2 | 16.5 | 0.00 | 0.00 | 0.00 | 44 | 1012.9 |
| 20260505193028 | 76 | 198 | 5.2 | 16.5 | 0.00 | 0.00 | 0.00 | 46 | 1012.9 |
| 20260505192505 | 76 | 200 | 7.0 | 13.0 | 0.00 | 0.00 | 0.00 | 42 | 1012.9 |
| 20260505192005 | 76 | 231 | 3.5 | 11.3 | 0.00 | 0.00 | 0.00 | 44 | 1012.9 |
| 20260505191520 | 76 | 172 | 7.0 | 11.3 | 0.00 | 0.00 | 0.00 | 41 | 1013.0 |
| 20260505191009 | 76 | 195 | 6.1 | 11.3 | 0.00 | 0.00 | 0.00 | 43 | 1013.0 |
| 20260505190507 | 75 | 168 | 5.2 | 11.3 | 0.00 | 0.00 | 0.00 | 48 | 1013.1 |
| 20260505190009 | 75 | 224 | 5.2 | 10.4 | 0.00 | 0.00 | 0.00 | 44 | 1013.2 |
| 20260505185510 | 75 | 192 | 4.3 | 9.6 | 0.00 | 0.00 | 0.00 | 44 | 1013.4 |
| 20260505185005 | 75 | 151 | 2.6 | 8.7 | 0.00 | 0.00 | 0.00 | 43 | 1013.3 |
| 20260505184514 | 75 | 257 | 3.5 | 9.6 | 0.00 | 0.00 | 0.00 | 45 | 1013.8 |
| 20260505184007 | 75 | 252 | 6.1 | 13.9 | 0.00 | 0.00 | 0.00 | 46 | 1014.0 |
| 20260505183508 | 74 | 179 | 7.0 | 13.9 | 0.00 | 0.00 | 0.00 | 43 | 1014.1 |
| 20260505183024 | 74 | 165 | 2.6 | 12.2 | 0.00 | 0.00 | 0.00 | 47 | 1014.2 |
| 20260505182507 | 74 | 201 | 5.2 | 12.2 | 0.00 | 0.00 | 0.00 | 46 | 1014.3 |
| 20260505182004 | 74 | 183 | 3.5 | 14.8 | 0.00 | 0.00 | 0.00 | 46 | 1014.3 |
| 20260505181527 | 74 | 173 | 7.8 | 14.8 | 0.00 | 0.00 | 0.00 | 45 | 1014.3 |
| 20260505181004 | 74 | 163 | 4.3 | 10.4 | 0.00 | 0.00 | 0.00 | 45 | 1014.3 |
| 20260505180503 | 74 | 160 | 5.2 | 10.4 | 0.00 | 0.00 | 0.00 | 46 | 1014.5 |
| 20260505180016 | 74 | 203 | 5.2 | 10.4 | 0.00 | 0.00 | 0.00 | 48 | 1014.6 |
| 20260505175504 | 74 | 217 | 1.7 | 10.4 | 0.00 | 0.00 | 0.00 | 49 | 1014.3 |
| 20260505175007 | 74 | 148 | 5.2 | 10.4 | 0.00 | 0.00 | 0.00 | 45 | 1014.5 |
| 20260505174517 | 74 | 208 | 3.5 | 11.3 | 0.00 | 0.00 | 0.00 | 47 | 1014.5 |
| 20260505174007 | 74 | 149 | 3.5 | 13.0 | 0.00 | 0.00 | 0.00 | 46 | 1014.8 |
| 20260505173507 | 74 | 188 | 7.0 | 13.0 | 0.00 | 0.00 | 0.00 | 46 | 1014.9 |
| 20260505173036 | 73 | 169 | 3.5 | 9.6 | 0.00 | 0.00 | 0.00 | 46 | 1014.8 |
| 20260505172506 | 73 | 237 | 5.2 | 9.6 | 0.00 | 0.00 | 0.00 | 47 | 1014.9 |
| 20260505172007 | 73 | 233 | 6.1 | 11.3 | 0.00 | 0.00 | 0.00 | 46 | 1015.0 |
| 20260505171538 | 73 | 148 | 4.3 | 11.3 | 0.00 | 0.00 | 0.00 | 48 | 1015.1 |
| 20260505171004 | 73 | 161 | 1.7 | 9.6 | 0.00 | 0.00 | 0.00 | 49 | 1015.1 |
| 20260505170504 | 72 | 181 | 4.3 | 9.6 | 0.00 | 0.00 | 0.00 | 48 | 1015.3 |
| 20260505170027 | 72 | 252 | 4.3 | 7.8 | 0.00 | 0.00 | 0.00 | 48 | 1015.4 |
| 20260505165506 | 72 | 210 | 3.5 | 7.8 | 0.00 | 0.00 | 0.00 | 49 | 1015.5 |
| 20260505165004 | 72 | 231 | 1.7 | 7.0 | 0.00 | 0.00 | 0.00 | 51 | 1015.6 |
| 20260505164509 | 72 | 223 | 3.5 | 8.7 | 0.00 | 0.00 | 0.00 | 51 | 1015.5 |
| 20260505164004 | 71 | 210 | 3.5 | 8.7 | 0.00 | 0.00 | 0.00 | 52 | 1015.5 |
| 20260505163504 | 71 | 231 | 4.3 | 8.7 | 0.00 | 0.00 | 0.00 | 53 | 1015.4 |
| 20260505163016 | 71 | 231 | 3.5 | 10.4 | 0.00 | 0.00 | 0.00 | 53 | 1015.2 |
| 20260505162505 | 71 | 181 | 2.6 | 10.4 | 0.00 | 0.00 | 0.00 | 53 | 1015.1 |
| 20260505162011 | 71 | 151 | 2.6 | 7.8 | 0.00 | 0.00 | 0.00 | 55 | 1015.3 |
| 20260505161522 | 70 | 150 | 5.2 | 7.8 | 0.00 | 0.00 | 0.00 | 54 | 1015.5 |
| 20260505161007 | 70 | 214 | 3.5 | 7.8 | 0.00 | 0.00 | 0.00 | 57 | 1015.5 |
| 20260505160515 | 70 | 204 | 2.6 | 8.7 | 0.00 | 0.00 | 0.00 | 56 | 1015.6 |
| 20260505153014 | 68 | 177 | 2.6 | 7.0 | 0.00 | 0.00 | 0.00 | 58 | 1015.7 |
| 20260505152508 | 68 | 240 | 3.5 | 7.0 | 0.00 | 0.00 | 0.00 | 57 | 1015.7 |
| 20260505152008 | 68 | 184 | 2.6 | 7.0 | 0.00 | 0.00 | 0.00 | 57 | 1015.6 |
| 20260505151529 | 67 | 161 | 3.5 | 7.0 | 0.00 | 0.00 | 0.00 | 59 | 1015.6 |
| 20260505151008 | 68 | 171 | 3.5 | 7.8 | 0.00 | 0.00 | 0.00 | 59 | 1015.5 |
| 20260505150510 | 67 | 155 | 3.5 | 8.7 | 0.00 | 0.00 | 0.00 | 58 | 1015.6 |
| 20260505140508 | 64 | 222 | 2.6 | 7.8 | 0.00 | 0.00 | 0.00 | 62 | 1015.6 |
| 20260505125008 | 62 | 216 | 1.7 | 6.1 | 0.00 | 0.00 | 0.00 | 61 | 1015.2 |
| 20260505124526 | 61 | 206 | 1.7 | 4.3 | 0.00 | 0.00 | 0.00 | 61 | 1015.2 |
| 20260505124009 | 61 | 191 | 2.6 | 5.2 | 0.00 | 0.00 | 0.00 | 61 | 1015.0 |
| 20260505123507 | 61 | 191 | 2.6 | 6.1 | 0.00 | 0.00 | 0.00 | 61 | 1015.0 |
| 20260505123026 | 60 | 169 | 1.7 | 7.0 | 0.00 | 0.00 | 0.00 | 62 | 1014.9 |
| 20260505122504 | 60 | 214 | 2.6 | 7.0 | 0.00 | 0.00 | 0.00 | 61 | 1014.8 |
| 20260505122008 | 60 | 229 | 1.7 | 5.2 | 0.00 | 0.00 | 0.00 | 61 | 1014.8 |
| 20260505121518 | 60 | 186 | 2.6 | 5.2 | 0.00 | 0.00 | 0.00 | 61 | 1014.9 |
| 20260505121006 | 60 | 191 | 1.7 | 7.0 | 0.00 | 0.00 | 0.00 | 61 | 1014.9 |
| 20260505120504 | 59 | 199 | 1.7 | 7.0 | 0.00 | 0.00 | 0.00 | 62 | 1014.7 |
| 20260505120048 | 59 | 203 | 2.6 | 6.1 | 0.00 | 0.00 | 0.00 | 62 | 1014.6 |
| 20260505115508 | 59 | 195 | 2.6 | 4.3 | 0.00 | 0.00 | 0.00 | 63 | 1014.6 |
| 20260505115006 | 59 | 221 | 1.7 | 7.0 | 0.00 | 0.00 | 0.00 | 63 | 1014.6 |
| 20260505114524 | 59 | 208 | 2.6 | 7.0 | 0.00 | 0.00 | 0.00 | 63 | 1014.5 |
| 20260505114008 | 58 | 193 | 2.6 | 4.3 | 0.00 | 0.00 | 0.00 | 63 | 1014.4 |
| 20260505113510 | 58 | 224 | 2.6 | 4.3 | 0.00 | 0.00 | 0.00 | 63 | 1014.3 |
| 20260505113028 | 58 | 227 | 2.6 | 4.3 | 0.00 | 0.00 | 0.00 | 62 | 1014.3 |
| 20260505112513 | 58 | 255 | 2.6 | 5.2 | 0.00 | 0.00 | 0.00 | 62 | 1014.3 |
| 20260505112013 | 58 | 209 | 2.6 | 5.2 | 0.00 | 0.00 | 0.00 | 62 | 1014.2 |
| 20260505111517 | 59 | 252 | 2.6 | 4.3 | 0.00 | 0.00 | 0.00 | 62 | 1014.1 |
| 20260505111009 | 59 | 219 | 2.6 | 4.3 | 0.00 | 0.00 | 0.00 | 61 | 1014.1 |
| 20260505110511 | 59 | 233 | 2.6 | 4.3 | 0.00 | 0.00 | 0.00 | 60 | 1014.1 |
| 20260505102006 | 59 | 229 | 1.7 | 3.5 | 0.00 | 0.00 | 0.00 | 60 | 1013.7 |
| 20260505101521 | 59 | 176 | 1.7 | 2.6 | 0.00 | 0.00 | 0.00 | 60 | 1013.6 |
| 20260505101005 | 59 | 245 | 0.9 | 3.5 | 0.00 | 0.00 | 0.00 | 60 | 1013.6 |
| 20260505100504 | 59 | 211 | 0.9 | 3.5 | 0.00 | 0.00 | 0.00 | 60 | 1013.7 |
| 20260505100022 | 59 | 205 | 0.9 | 3.5 | 0.00 | 0.00 | 0.00 | 60 | 1013.7 |
| 20260505095507 | 59 | 203 | 1.7 | 3.5 | 0.00 | 0.00 | 0.00 | 60 | 1013.7 |
| 20260505095008 | 59 | 207 | 0.9 | 3.5 | 0.00 | 0.00 | 0.00 | 60 | 1013.8 |
| 20260505094504 | 59 | 155 | 1.7 | 3.5 | 0.00 | 0.00 | 0.00 | 61 | 1013.8 |
| 20260505094002 | 58 | 206 | 0.9 | 3.5 | 0.00 | 0.00 | 0.00 | 62 | 1013.8 |
| 20260505093502 | 58 | 241 | 0.9 | 3.5 | 0.00 | 0.00 | 0.00 | 63 | 1013.7 |
| 20260505093008 | 57 | 224 | 1.7 | 2.6 | 0.00 | 0.00 | 0.00 | 64 | 1013.7 |
| 20260505092504 | 57 | 217 | 0.9 | 1.7 | 0.00 | 0.00 | 0.00 | 64 | 1013.7 |
| 20260505092004 | 57 | 246 | 0.9 | 1.7 | 0.00 | 0.00 | 0.00 | 66 | 1013.7 |
| 20260505091523 | 56 | 180 | 0.0 | 2.6 | 0.00 | 0.00 | 0.00 | 66 | 1013.8 |
| 20260505091004 | 56 | 210 | 0.9 | 2.6 | 0.00 | 0.00 | 0.00 | 67 | 1013.8 |
| 20260505090503 | 56 | 203 | 0.0 | 0.0 | 0.00 | 0.00 | 0.00 | 70 | 1013.7 |
| 20260505090034 | 56 | 203 | 0.0 | 1.7 | 0.00 | 0.00 | 0.00 | 69 | 1013.7 |
| 20260505085510 | 56 | 203 | 0.0 | 1.7 | 0.00 | 0.00 | 0.00 | 66 | 1013.7 |
| 20260505085006 | 56 | 202 | 0.9 | 1.7 | 0.00 | 0.00 | 0.00 | 67 | 1013.7 |
| 20260505084520 | 56 | 180 | 0.0 | 1.7 | 0.00 | 0.00 | 0.00 | 69 | 1013.8 |
| 20260505084007 | 57 | 180 | 0.0 | 1.7 | 0.00 | 0.00 | 0.00 | 67 | 1013.8 |
| 20260505083505 | 57 | 200 | 0.0 | 1.7 | 0.00 | 0.00 | 0.00 | 66 | 1013.8 |
| 20260505083005 | 57 | 200 | 0.0 | 1.7 | 0.00 | 0.00 | 0.00 | 65 | 1013.8 |
| 20260505082504 | 57 | 200 | 0.0 | 1.7 | 0.00 | 0.00 | 0.00 | 64 | 1013.8 |
| 20260505082004 | 58 | 204 | 0.0 | 2.6 | 0.00 | 0.00 | 0.00 | 65 | 1013.8 |
| 20260505081512 | 58 | 202 | 1.7 | 2.6 | 0.00 | 0.00 | 0.00 | 64 | 1013.9 |
| 20260505081005 | 58 | 226 | 0.9 | 2.6 | 0.00 | 0.00 | 0.00 | 64 | 1013.9 |
| 20260505080506 | 58 | 226 | 0.9 | 2.6 | 0.00 | 0.00 | 0.00 | 65 | 1014.0 |
| 20260505080014 | 58 | 231 | 0.9 | 2.6 | 0.00 | 0.00 | 0.00 | 65 | 1014.0 |
| 20260505075503 | 58 | 231 | 0.9 | 1.7 | 0.00 | 0.00 | 0.00 | 65 | 1013.9 |
| 20260505075007 | 58 | 205 | 0.9 | 1.7 | 0.00 | 0.00 | 0.00 | 65 | 1013.9 |
| 20260505074520 | 58 | 232 | 0.9 | 1.7 | 0.00 | 0.00 | 0.00 | 64 | 1013.8 |
| 20260505074007 | 58 | 220 | 0.9 | 2.6 | 0.00 | 0.00 | 0.00 | 65 | 1013.7 |
| 20260505073508 | 58 | 214 | 1.7 | 2.6 | 0.00 | 0.00 | 0.00 | 65 | 1013.8 |
| 20260505073040 | 58 | 203 | 1.7 | 2.6 | 0.00 | 0.00 | 0.00 | 65 | 1013.8 |
| 20260505072505 | 58 | 206 | 0.9 | 2.6 | 0.00 | 0.00 | 0.00 | 65 | 1013.8 |
| 20260505072003 | 58 | 206 | 0.9 | 3.5 | 0.00 | 0.00 | 0.00 | 64 | 1013.7 |
| 20260505071514 | 59 | 230 | 1.7 | 3.5 | 0.00 | 0.00 | 0.00 | 64 | 1013.8 |
| 20260505071004 | 59 | 226 | 1.7 | 2.6 | 0.00 | 0.00 | 0.00 | 64 | 1013.8 |
| 20260505070505 | 59 | 224 | 1.7 | 3.5 | 0.00 | 0.00 | 0.00 | 64 | 1013.9 |
| 20260505070009 | 59 | 224 | 1.7 | 3.5 | 0.00 | 0.00 | 0.00 | 64 | 1014.0 |
| 20260505065504 | 59 | 232 | 1.7 | 3.5 | 0.00 | 0.00 | 0.00 | 63 | 1014.0 |
| 20260505065004 | 60 | 217 | 1.7 | 3.5 | 0.00 | 0.00 | 0.00 | 63 | 1014.0 |
| 20260505064533 | 60 | 240 | 1.7 | 3.5 | 0.00 | 0.00 | 0.00 | 62 | 1013.9 |
| 20260505064007 | 60 | 241 | 1.7 | 2.6 | 0.00 | 0.00 | 0.00 | 62 | 1014.0 |
| 20260505063509 | 60 | 241 | 1.7 | 2.6 | 0.00 | 0.00 | 0.00 | 61 | 1014.0 |
| 20260505063022 | 60 | 250 | 1.7 | 2.6 | 0.00 | 0.00 | 0.00 | 62 | 1014.0 |
| 20260505062509 | 60 | 224 | 1.7 | 3.5 | 0.00 | 0.00 | 0.00 | 62 | 1014.0 |
| 20260505062011 | 60 | 210 | 1.7 | 3.5 | 0.00 | 0.00 | 0.00 | 62 | 1014.0 |
| 20260505061539 | 60 | 238 | 1.7 | 2.6 | 0.00 | 0.00 | 0.00 | 63 | 1014.0 |
| 20260505061003 | 60 | 203 | 0.9 | 2.6 | 0.00 | 0.00 | 0.00 | 63 | 1014.0 |
| 20260505060505 | 60 | 208 | 0.9 | 2.6 | 0.00 | 0.00 | 0.00 | 63 | 1014.0 |
| 20260505060007 | 60 | 228 | 0.9 | 1.7 | 0.00 | 0.00 | 0.00 | 63 | 1014.0 |